This is the latest recevied weather packets stored in our database for station/object KS5S. If no packets are shown the sender has not sent any weather packets the latest 1 day(s).
| Time | Temp. | Humidity | Pressure | Rain* | Wind** | Luminosity | Snow |
|---|---|---|---|---|---|---|---|
| 1778043659 | 20.56° C | 76% | 1007.1 hPa | 0 mm | 1.34 m/s, 349° | 0 W/m² | - |
| 1778043355 | 20.56° C | 76% | 1007 hPa | 0 mm | 1.79 m/s, 13° | 0 W/m² | - |
| 1778043052 | 20.56° C | 76% | 1007.1 hPa | 0 mm | 2.24 m/s, 0° | 0 W/m² | - |
| 1778042750 | 20.56° C | 76% | 1006.9 hPa | 0 mm | 1.79 m/s, 0° | 0 W/m² | - |
| 1778042446 | 20.56° C | 75% | 1007.1 hPa | 0 mm | 1.79 m/s, 347° | 0 W/m² | - |
| 1778042143 | 20.56° C | 75% | 1007 hPa | 0 mm | 1.34 m/s, 343° | 0 W/m² | - |
| 1778041842 | 21.11° C | 74% | 1007.2 hPa | 0 mm | 1.79 m/s, 4° | 0 W/m² | - |
| 1778041541 | 21.11° C | 73% | 1007 hPa | 0 mm | 0.45 m/s, 259° | 0 W/m² | - |
| 1778041238 | 21.11° C | 73% | 1006.9 hPa | 0 mm | 1.79 m/s, 353° | 0 W/m² | - |
| 1778040937 | 21.11° C | 73% | 1007 hPa | 0 mm | 1.79 m/s, 8° | 0 W/m² | - |
| 1778040633 | 21.11° C | 74% | 1006.9 hPa | 0 mm | 2.68 m/s, 354° | 0 W/m² | - |
| 1778040331 | 21.67° C | 74% | 1006.8 hPa | 0 mm | 2.68 m/s, 359° | 0 W/m² | - |
| 1778040027 | 21.67° C | 74% | 1006.8 hPa | 0 mm | 1.79 m/s, 359° | 0 W/m² | - |
| 1778039724 | 21.67° C | 74% | 1006.5 hPa | 0 mm | 2.68 m/s, 356° | 0 W/m² | - |
| 1778039421 | 21.67° C | 74% | 1006.8 hPa | 0 mm | 2.24 m/s, 1° | 0 W/m² | - |
| 1778039118 | 21.67° C | 73% | 1006.5 hPa | 0 mm | 4.02 m/s, 358° | 0 W/m² | - |
| 1778038815 | 22.22° C | 73% | 1006.4 hPa | 0 mm | 1.79 m/s, 12° | 0 W/m² | - |
| 1778038512 | 22.22° C | 73% | 1006.4 hPa | 0 mm | 2.24 m/s, 6° | 0 W/m² | - |
| 1778038209 | 22.22° C | 73% | 1005.9 hPa | 0 mm | 2.24 m/s, 348° | 0 W/m² | - |
| 1778037907 | 22.78° C | 72% | 1005.9 hPa | 0 mm | 3.13 m/s, 12° | 0 W/m² | - |
| 1778037603 | 22.78° C | 73% | 1005.9 hPa | 0 mm | 1.34 m/s, 28° | 0 W/m² | - |
| 1778037301 | 22.78° C | 72% | 1005.7 hPa | 0 mm | 4.92 m/s, 23° | 0 W/m² | - |
| 1778036998 | 22.78° C | 73% | 1005.5 hPa | 0 mm | 1.79 m/s, 11° | 0 W/m² | - |
| 1778036696 | 23.33° C | 72% | 1005.5 hPa | 0 mm | 1.34 m/s, 358° | 0 W/m² | - |
| 1778036392 | 23.33° C | 72% | 1005.4 hPa | 0 mm | 2.68 m/s, 0° | 0 W/m² | - |
* Rain latest hour (hover to see other rain measurements)
** Current wind speed in m/s (hover to see current wind gust speed)